Hourly Data Report for October 06, 2016

All times are specified in Local Standard Time (LST). Add 1 hour to adjust for Daylight Saving Time where and when it is observed.

CLYDE RIVER A
NUNAVUT

70°29'09.000" N
68°31'01.000" W
26.50 m
2400804
71090
YCY

Download Data

Hourly Data (October 2016)
Hourly Data Report for October 6, 2016
Temp Definition
°C
Dew Point Temp Definition
°C
Rel Hum Definition
%
Wind Dir Definition
10's deg

Wind Spd Definition
km/h
Visibility Definition
km
Stn Press Definition
kPa
Hmdx Definition


Wind Chill Definition


Weather Definition


TIME
00:00 Legend Double Dagger -2.4 -4.4 86 31 43 16.1 100.52   -11 LegendNANA
01:00 Legend Double Dagger -2.6 -4.3 88 31 34 16.1 100.51   -10 LegendNANA
02:00 Legend Double Dagger -2.7 -4.5 88 30 35 16.1 100.51   -11 LegendNANA
03:00 Legend Double Dagger -2.5 -4.6 85 30 30 16.1 100.51   -10 LegendNANA
04:00 Legend Double Dagger -2.5 -3.6 92 30 35 12.9 100.50   -10 LegendNANA
05:00 Legend Double Dagger -2.3 -3.6 91 31 21 16.1 100.54   -8 LegendNANA
06:00 Legend Double Dagger -2.4 -4.6 85 29 22 16.1 100.55   -9 LegendNANA
07:00 Legend Double Dagger -2.2 -4.5 84 30 21 16.1 100.54   -8 LegendNANA
08:00 Legend Double Dagger -2.7 -5.6 81 28 21 16.1 100.52   -9 LegendNANA
09:00 Legend Double Dagger -2.2 -5.2 80 27 15 16.1 100.53   -7 LegendNANA
10:00 Legend Double Dagger -1.6 -5.4 76 29 17 16.1 100.52   -7 LegendNANA
11:00 Legend Double Dagger -0.9 -5.4 72 30 17 16.1 100.52   -6 LegendNANA
12:00 Legend Double Dagger -0.8 -4.9 74 28 17 16.1 100.52   -6 LegendNANA
13:00 Legend Double Dagger -0.4 -4.8 73 29 17 16.1 100.52   -5 LegendNANA
14:00 Legend Double Dagger -0.3 -4.8 72 29 13 16.1 100.53   -4 LegendNANA
15:00 Legend Double Dagger -0.3 -4.4 74 30 13 16.1 100.55   -4 LegendNANA
16:00 Legend Double Dagger -0.4 -4.3 75 29 13 16.1 100.57   -5 LegendNANA
17:00 Legend Double Dagger -0.7 -4.2 77 29 18 16.1 100.58   -6 LegendNANA
18:00 Legend Double Dagger -0.7 -2.7 87 31 21 16.1 100.60   -6 Snow
19:00 Legend Double Dagger -0.9 -1.9 93 31 21 4.8 100.63   -7 Snow
20:00 Legend Double Dagger -1.1 -2.4 91 29 17 16.1 100.64   -6 Snow
21:00 Legend Double Dagger -0.9 -2.5 89 30 18 16.1 100.68   -6 Snow
22:00 Legend Double Dagger -1.0 -2.0 93 31 24 16.1 100.68   -7 Snow
23:00 Legend Double Dagger -0.9 -2.5 89 29 18 16.1 100.71   -6 LegendNANA

Notes on Data Quality.

Legend

  • E = Estimated
  • M = Missing
  • NA = Not Available
  • ‡ = Partner data that is not subject to review by the National Climate Archives
Date modified: